START_TIME,STEP,MOV.,M29,t_acc.,H22,t_acc.,H26,t_acc.,H30,t_acc.
1979-07-29 00:00:31.050 ,0,0,0.,24.0,0.,24.0,0.,24.0,0.,24.0
1979-07-29 00:00:55.050 ,1,1,0.,24.0,0.,24.0,0.,24.0,0.,24.0
1979-07-29 00:01:19.050 ,1,0,0.,24.0,0.,24.0,0.,24.0,0.,24.0
1979-07-29 00:01:43.050 ,2,1,0.,24.0,0.,24.0,0.,24.0,0.,24.0
1979-07-29 00:02:07.050 ,2,0,0.,24.0,0.,24.0,0.,24.0,0.,24.0
1979-07-29 00:02:31.050 ,3,1,0.,24.0,0.,24.0,0.,24.0,0.,24.0
1979-07-29 00:02:55.050 ,3,0,0.,24.0,0.,24.0,0.,24.0,0.,24.0
1979-07-29 00:03:19.050 ,4,1,0.,24.0,0.,24.0,0.,24.0,0.,24.0
1979-07-29 00:03:43.050 ,4,0,0.,24.0,0.,24.0,0.,24.0,0.,24.0
1979-07-29 00:04:07.050 ,5,1,0.,24.0,0.,24.0,0.,24.0,0.,24.0
1979-07-29 00:04:31.050 ,5,0,0.,24.0,0.,24.0,0.,24.0,0.,24.0
1979-07-29 00:04:55.050 ,6,1,0.,24.0,0.,24.0,0.,24.0,0.,24.0
1979-07-29 00:05:19.050 ,6,0,0.,24.0,0.,24.0,0.,24.0,0.,24.0
1979-07-29 00:05:43.050 ,7,1,0.,24.0,0.,24.0,0.,24.0,0.,24.0
1979-07-29 00:06:07.050 ,7,0,0.,24.0,0.,24.0,0.,24.0,0.,24.0
1979-07-29 00:06:31.050 ,7,1,0.,24.0,0.,24.0,0.,24.0,0.,24.0
1979-07-29 00:06:55.050 ,7,0,0.,24.0,0.,24.0,0.,24.0,0.,24.0
1979-07-29 00:07:19.050 ,6,1,0.,24.0,0.,24.0,0.,24.0,0.,24.0
1979-07-29 00:07:43.050 ,6,0,0.,24.0,0.,24.0,0.,24.0,0.,24.0
1979-07-29 00:08:07.050 ,5,1,0.,24.0,0.,24.0,0.,24.0,0.,24.0
1979-07-29 00:08:31.050 ,5,0,0.,24.0,0.,24.0,0.,24.0,0.,24.0
1979-07-29 00:08:55.050 ,4,1,0.,24.0,0.,24.0,0.,24.0,0.,24.0
1979-07-29 00:09:19.050 ,4,0,0.,24.0,0.,24.0,0.,24.0,0.,24.0
1979-07-29 00:09:43.050 ,3,1,0.,24.0,0.,24.0,0.,24.0,0.,24.0
1979-07-29 00:10:07.050 ,3,0,0.,24.0,0.,24.0,0.,24.0,0.,24.0
1979-07-29 00:10:31.050 ,2,1,0.,24.0,0.,24.0,0.,24.0,0.,24.0
1979-07-29 00:10:55.050 ,2,0,0.,24.0,0.,24.0,0.,24.0,0.,24.0
1979-07-29 00:11:19.050 ,1,1,0.,24.0,0.,24.0,0.,24.0,0.,24.0
1979-07-29 00:11:43.050 ,1,0,0.,24.0,0.,24.0,0.,24.0,0.,24.0
1979-07-29 00:12:07.050 ,0,1,0.,24.0,0.,24.0,0.,24.0,0.,24.0
1979-07-29 00:12:31.050 ,0,0,0.,24.0,0.,24.0,0.,24.0,0.,24.0
1979-07-29 00:12:55.050 ,0,1,0.,24.0,0.,24.0,0.,24.0,0.,24.0
1979-07-29 00:13:19.050 ,0,0,0.,24.0,0.,24.0,0.,24.0,0.,24.0
1979-07-29 00:13:43.050 ,0,0,,0,,0,,0,,0
1979-07-29 00:14:07.050 ,0,0,,0,,0,,0,,0
1979-07-29 00:20:22.050 ,0,0,,0,,0,,0,,0
1979-07-29 00:20:31.050 ,6,1,0.,24.0,0.,24.0,0.,24.0,0.,24.0
1979-07-29 00:20:55.050 ,5,1,0.,24.0,0.,24.0,0.,24.0,0.,24.0
1979-07-29 00:21:19.050 ,1,1,1.,24.0,0.,24.0,0.,24.0,0.,24.0
1979-07-29 00:21:43.050 ,0,0,,0,,0,,0,,0
1979-07-29 00:22:07.050 ,0,0,,0,,0,,0,,0
1979-07-29 00:23:25.650 ,0,0,0.,24.0,0.,24.0,0.,24.0,0.,24.0
1979-07-29 00:23:43.050 ,6,1,0.,24.0,0.,24.0,0.,24.0,0.,24.0
1979-07-29 00:24:07.050 ,5,1,0.,24.0,0.,24.0,0.,24.0,0.,24.0
1979-07-29 00:24:31.050 ,1,1,0.,24.0,0.,24.0,0.,24.0,0.,24.0
1979-07-29 00:24:55.050 ,2,1,0.,24.0,0.,24.0,0.,24.0,0.,24.0
1979-07-29 00:25:19.050 ,6,1,0.,24.0,0.,24.0,0.,24.0,0.,24.0
1979-07-29 00:25:43.050 ,5,1,0.,24.0,0.,24.0,0.,24.0,0.,24.0
1979-07-29 00:26:07.050 ,1,1,0.,24.0,0.,24.0,0.,24.0,0.,24.0
1979-07-29 00:26:31.050 ,2,1,0.,24.0,0.,24.0,0.,24.0,0.,24.0
1979-07-29 00:26:55.050 ,6,1,0.,24.0,0.,24.0,0.,24.0,0.,24.0
1979-07-29 00:27:19.050 ,5,1,0.,24.0,0.,24.0,0.,24.0,0.,24.0
1979-07-29 00:27:43.050 ,1,1,0.,24.0,0.,24.0,0.,24.0,0.,24.0
1979-07-29 00:28:07.050 ,2,1,0.,24.0,0.,24.0,0.,24.0,0.,24.0
1979-07-29 00:28:31.050 ,6,1,0.,24.0,0.,24.0,0.,24.0,0.,24.0
1979-07-29 00:28:55.050 ,0,0,0.,24.0,0.,24.0,0.,24.0,0.,24.0
1979-07-29 00:29:19.050 ,0,0,,0,,0,,0,,0
1979-07-29 00:30:37.050 ,0,0,0.,24.0,0.,24.0,0.,24.0,0.,24.0
1979-07-29 00:30:55.050 ,0,0,0.,24.0,0.,24.0,0.,24.0,0.,24.0
1979-07-29 00:31:19.050 ,4,1,0.,24.0,0.,24.0,0.,24.0,0.,24.0
1979-07-29 00:31:43.050 ,4,0,0.,24.0,0.,24.0,0.,24.0,0.,24.0
1979-07-29 00:32:07.050 ,3,0,,0,,0,,0,,0
1979-07-29 00:32:31.050 ,0,0,0.,24.0,0.,24.0,0.,24.0,0.,24.0
1979-07-29 00:32:55.050 ,2,1,0.,24.0,0.,24.0,0.,24.0,0.,24.0
1979-07-29 00:33:19.050 ,0,0,0.,24.0,0.,24.0,0.,24.0,0.,24.0
1979-07-29 00:33:43.050 ,0,0,,0,,0,,0,,0
1979-07-29 00:34:07.050 ,0,0,,0,,0,,0,,0
1979-07-29 00:34:31.050 ,0,1,0.,24.0,0.,24.0,0.,24.0,0.,24.0
1979-07-29 00:34:55.050 ,0,1,0.,24.0,0.,24.0,0.,24.0,0.,24.0
1979-07-29 00:35:19.050 ,0,0,,0,,0,,0,,0
1979-07-29 00:35:43.050 ,0,0,0.,24.0,0.,24.0,0.,24.0,0.,24.0
1979-07-29 00:36:07.050 ,0,0,0.,24.0,0.,24.0,0.,24.0,0.,24.0
1979-07-29 00:36:31.050 ,0,0,0.,24.0,0.,24.0,0.,24.0,0.,24.0
1979-07-29 00:36:55.050 ,2,1,0.,24.0,0.,24.0,0.,24.0,0.,24.0
1979-07-29 00:37:19.050 ,2,0,,0,,0,,0,,0
1979-07-29 00:37:43.050 ,0,0,0.,24.0,0.,24.0,0.,24.0,0.,24.0
1979-07-29 00:38:07.050 ,0,0,0.,24.0,0.,24.0,0.,24.0,0.,24.0
1979-07-29 00:38:31.050 ,0,0,0.,24.0,0.,24.0,0.,24.0,0.,24.0
1979-07-29 00:38:55.050 ,0,0,0.,24.0,0.,24.0,0.,24.0,0.,24.0
1979-07-29 00:39:19.050 ,0,0,0.,24.0,0.,24.0,0.,24.0,0.,24.0
1979-07-29 00:39:43.050 ,0,0,,0,,0,,0,,0
1979-07-29 00:41:02.250 ,0,0,0.,24.0,0.,24.0,0.,24.0,0.,24.0
1979-07-29 00:41:19.050 ,0,0,,0,,0,,0,,0
1979-07-29 00:41:43.050 ,7,1,0.,24.0,0.,24.0,0.,24.0,0.,24.0
1979-07-29 00:42:07.050 ,7,0,0.,24.0,0.,24.0,0.,24.0,0.,24.0
1979-07-29 00:42:31.050 ,6,1,0.,24.0,0.,24.0,0.,24.0,0.,24.0
1979-07-29 00:42:55.050 ,6,0,0.,24.0,0.,24.0,0.,24.0,0.,24.0
1979-07-29 00:43:19.050 ,5,1,0.,24.0,0.,24.0,0.,24.0,0.,24.0
1979-07-29 00:43:43.050 ,5,0,0.,24.0,0.,24.0,0.,24.0,0.,24.0
1979-07-29 00:44:07.050 ,4,1,0.,24.0,0.,24.0,0.,24.0,0.,24.0
1979-07-29 00:44:31.050 ,4,0,,0,,0,,0,,0
1979-07-29 00:44:55.050 ,3,1,0.,24.0,0.,24.0,0.,24.0,0.,24.0
1979-07-29 00:45:19.050 ,3,0,0.,24.0,0.,24.0,0.,24.0,0.,24.0
1979-07-29 00:45:43.050 ,0,0,0.,24.0,0.,24.0,0.,24.0,0.,24.0
1979-07-29 00:46:07.050 ,0,0,0.,24.0,0.,24.0,0.,24.0,0.,24.0
1979-07-29 00:46:31.050 ,0,0,0.,24.0,0.,24.0,0.,24.0,0.,24.0
1979-07-29 00:46:55.050 ,0,0,0.,24.0,0.,24.0,0.,24.0,0.,24.0
1979-07-29 00:47:19.050 ,0,0,,0,,0,,0,,0
1979-07-29 00:47:43.050 ,0,1,0.,24.0,0.,24.0,0.,24.0,0.,24.0
1979-07-29 00:48:07.050 ,0,0,0.,24.0,0.,24.0,0.,24.0,0.,24.0
1979-07-29 00:48:31.050 ,0,0,,0,,0,,0,,0
1979-07-29 00:50:10.650 ,0,0,0.,24.0,0.,24.0,0.,24.0,0.,24.0
1979-07-29 00:50:31.050 ,3,0,,0,,0,,0,,0
1979-07-29 00:50:55.050 ,0,0,,0,,0,,0,,0
1979-07-29 00:51:35.850 ,0,0,,0,,0,,0,,0
1979-07-29 00:51:43.050 ,0,0,0.,24.0,0.,24.0,0.,24.0,0.,24.0
1979-07-29 00:52:07.050 ,5,1,0.,24.0,0.,24.0,0.,24.0,0.,24.0
1979-07-29 00:52:31.050 ,5,0,0.,24.0,0.,24.0,0.,24.0,0.,24.0
1979-07-29 00:52:55.050 ,6,1,0.,24.0,0.,24.0,0.,24.0,0.,24.0
1979-07-29 00:53:19.050 ,6,0,0.,24.0,0.,24.0,0.,24.0,0.,24.0
1979-07-29 00:53:43.050 ,7,1,0.,24.0,0.,24.0,0.,24.0,0.,24.0
1979-07-29 00:54:07.050 ,7,0,0.,24.0,0.,24.0,0.,24.0,0.,24.0
1979-07-29 00:54:31.040 ,7,1,0.,24.0,0.,24.0,0.,24.0,0.,24.0
1979-07-29 00:54:55.040 ,7,0,0.,24.0,0.,24.0,0.,24.0,0.,24.0
1979-07-29 00:55:19.040 ,6,1,0.,24.0,0.,24.0,0.,24.0,0.,24.0
1979-07-29 00:55:43.040 ,6,0,0.,24.0,0.,24.0,0.,24.0,0.,24.0
1979-07-29 00:56:07.040 ,5,1,0.,24.0,0.,24.0,0.,24.0,0.,24.0
1979-07-29 00:56:31.040 ,5,0,1.,24.0,0.,24.0,0.,24.0,0.,24.0
1979-07-29 00:56:55.040 ,4,1,0.,24.0,0.,24.0,0.,24.0,0.,24.0
1979-07-29 00:57:19.040 ,4,0,0.,24.0,0.,24.0,0.,24.0,0.,24.0
1979-07-29 00:57:43.040 ,3,1,0.,24.0,0.,24.0,0.,24.0,0.,24.0
1979-07-29 00:58:07.040 ,3,0,0.,24.0,0.,24.0,0.,24.0,0.,24.0
1979-07-29 00:58:31.040 ,2,1,0.,24.0,0.,24.0,0.,24.0,0.,24.0
1979-07-29 00:58:55.040 ,2,0,0.,24.0,0.,24.0,0.,24.0,0.,24.0
1979-07-29 00:59:19.040 ,1,1,0.,24.0,0.,24.0,0.,24.0,0.,24.0
1979-07-29 00:59:43.040 ,1,0,0.,24.0,0.,24.0,0.,24.0,0.,24.0
1979-07-29 01:00:07.050 ,0,1,0.,24.0,0.,24.0,0.,24.0,0.,24.0
1979-07-29 01:00:31.050 ,0,0,0.,24.0,0.,24.0,0.,24.0,0.,24.0
1979-07-29 01:00:55.050 ,0,1,0.,24.0,0.,24.0,0.,24.0,0.,24.0
1979-07-29 01:01:19.040 ,0,0,0.,24.0,0.,24.0,0.,24.0,0.,24.0
1979-07-29 01:01:43.050 ,1,1,0.,24.0,0.,24.0,0.,24.0,0.,24.0
1979-07-29 01:02:07.040 ,1,0,0.,24.0,0.,24.0,0.,24.0,0.,24.0
1979-07-29 01:02:31.050 ,2,1,0.,24.0,0.,24.0,0.,24.0,0.,24.0
1979-07-29 01:02:55.050 ,2,0,0.,24.0,0.,24.0,0.,24.0,0.,24.0
1979-07-29 01:03:19.050 ,3,1,0.,24.0,0.,24.0,0.,24.0,0.,24.0
1979-07-29 01:03:43.050 ,3,0,0.,24.0,0.,24.0,0.,24.0,0.,24.0
1979-07-29 01:04:07.050 ,4,1,0.,24.0,0.,24.0,0.,24.0,0.,24.0
1979-07-29 01:04:31.040 ,4,0,0.,24.0,0.,24.0,0.,24.0,0.,24.0
1979-07-29 01:04:55.040 ,5,1,1.,24.0,0.,24.0,0.,24.0,0.,24.0
1979-07-29 01:05:19.040 ,5,0,0.,24.0,0.,24.0,0.,24.0,0.,24.0
1979-07-29 01:05:43.040 ,6,1,0.,24.0,0.,24.0,0.,24.0,0.,24.0
1979-07-29 01:06:07.040 ,6,0,0.,24.0,0.,24.0,0.,24.0,0.,24.0
1979-07-29 01:06:31.040 ,7,0,0.,24.0,0.,24.0,0.,24.0,0.,24.0
1979-07-29 01:06:55.040 ,7,0,0.,24.0,0.,24.0,0.,24.0,0.,24.0
1979-07-29 01:07:19.040 ,5,1,0.,24.0,0.,24.0,0.,24.0,0.,24.0
1979-07-29 01:07:43.040 ,1,1,0.,24.0,0.,24.0,0.,24.0,0.,24.0
1979-07-29 01:08:07.040 ,2,1,0.,24.0,0.,24.0,0.,24.0,0.,24.0
1979-07-29 01:08:31.040 ,6,1,0.,24.0,0.,24.0,0.,24.0,0.,24.0
1979-07-29 01:08:55.050 ,5,1,0.,24.0,0.,24.0,0.,24.0,0.,24.0
1979-07-29 01:09:19.050 ,1,1,0.,24.0,0.,24.0,0.,24.0,0.,24.0
1979-07-29 01:09:43.050 ,2,1,0.,24.0,0.,24.0,0.,24.0,0.,24.0
1979-07-29 01:10:07.050 ,6,1,0.,24.0,0.,24.0,0.,24.0,0.,24.0
1979-07-29 01:10:31.050 ,5,1,0.,24.0,0.,24.0,0.,24.0,0.,24.0
1979-07-29 01:10:55.050 ,1,1,0.,24.0,0.,24.0,0.,24.0,0.,24.0
1979-07-29 01:11:19.050 ,2,1,0.,24.0,0.,24.0,0.,24.0,0.,24.0
1979-07-29 01:11:43.050 ,6,1,0.,24.0,0.,24.0,0.,24.0,0.,24.0
1979-07-29 01:12:07.050 ,5,1,0.,24.0,0.,24.0,0.,24.0,0.,24.0
1979-07-29 01:12:31.050 ,1,1,0.,24.0,0.,24.0,0.,24.0,0.,24.0
1979-07-29 01:12:55.050 ,2,1,0.,24.0,0.,24.0,0.,24.0,0.,24.0
1979-07-29 01:13:19.050 ,6,1,0.,24.0,0.,24.0,0.,24.0,0.,24.0
1979-07-29 01:13:43.040 ,5,1,0.,24.0,0.,24.0,0.,24.0,0.,24.0
1979-07-29 01:14:07.040 ,1,1,0.,24.0,0.,24.0,0.,24.0,0.,24.0
1979-07-29 01:14:31.040 ,2,1,0.,24.0,0.,24.0,0.,24.0,0.,24.0
1979-07-29 01:14:55.040 ,6,1,0.,24.0,0.,24.0,0.,24.0,0.,24.0
1979-07-29 01:15:19.040 ,5,1,0.,24.0,0.,24.0,0.,24.0,0.,24.0
1979-07-29 01:15:43.040 ,1,1,0.,24.0,0.,24.0,0.,24.0,0.,24.0
1979-07-29 01:16:07.040 ,2,1,0.,24.0,0.,24.0,0.,24.0,0.,24.0
1979-07-29 01:16:31.040 ,6,1,0.,24.0,0.,24.0,0.,24.0,0.,24.0
1979-07-29 01:16:55.040 ,5,1,0.,24.0,0.,24.0,0.,24.0,0.,24.0
1979-07-29 01:17:19.040 ,1,1,0.,24.0,0.,24.0,0.,24.0,0.,24.0
1979-07-29 01:17:43.040 ,0,0,0.,24.0,0.,24.0,0.,24.0,0.,24.0
1979-07-29 01:18:07.040 ,0,0,0.,24.0,0.,24.0,0.,24.0,0.,24.0
1979-07-29 01:18:31.040 ,5,1,0.,24.0,0.,24.0,0.,24.0,0.,24.0
1979-07-29 01:18:55.040 ,5,0,0.,24.0,0.,24.0,0.,24.0,0.,24.0
1979-07-29 01:19:19.040 ,4,1,0.,24.0,0.,24.0,0.,24.0,0.,24.0
1979-07-29 01:19:43.040 ,4,0,0.,24.0,0.,24.0,0.,24.0,0.,24.0
1979-07-29 01:20:07.040 ,3,1,0.,24.0,0.,24.0,0.,24.0,0.,24.0
1979-07-29 01:20:31.040 ,3,0,0.,24.0,0.,24.0,0.,24.0,0.,24.0
1979-07-29 01:20:55.040 ,2,1,0.,24.0,0.,24.0,0.,24.0,0.,24.0
1979-07-29 01:21:19.040 ,2,0,0.,24.0,0.,24.0,0.,24.0,0.,24.0
1979-07-29 01:21:43.040 ,1,1,0.,24.0,0.,24.0,0.,24.0,0.,24.0
1979-07-29 01:22:07.040 ,1,0,0.,24.0,0.,24.0,0.,24.0,0.,24.0
1979-07-29 01:22:31.040 ,0,1,0.,24.0,0.,24.0,0.,24.0,0.,24.0
1979-07-29 01:22:55.040 ,0,0,0.,24.0,0.,24.0,0.,24.0,0.,24.0
1979-07-29 01:23:19.040 ,0,1,0.,24.0,0.,24.0,0.,24.0,0.,24.0
1979-07-29 01:23:43.040 ,0,0,0.,24.0,0.,24.0,0.,24.0,0.,24.0
1979-07-29 01:24:07.040 ,1,1,0.,24.0,0.,24.0,0.,24.0,0.,24.0
1979-07-29 01:24:31.040 ,1,0,0.,24.0,0.,24.0,0.,24.0,0.,24.0
1979-07-29 01:24:55.040 ,2,1,0.,24.0,0.,24.0,0.,24.0,0.,24.0
1979-07-29 01:25:19.040 ,2,0,0.,24.0,0.,24.0,0.,24.0,0.,24.0
1979-07-29 01:25:43.040 ,3,1,0.,24.0,0.,24.0,0.,24.0,0.,24.0
1979-07-29 01:26:07.040 ,3,0,0.,24.0,0.,24.0,0.,24.0,0.,24.0
1979-07-29 01:26:31.040 ,4,1,0.,24.0,0.,24.0,0.,24.0,0.,24.0
1979-07-29 01:26:55.040 ,4,0,0.,24.0,0.,24.0,0.,24.0,0.,24.0
1979-07-29 01:27:19.040 ,5,1,0.,24.0,0.,24.0,0.,24.0,0.,24.0
1979-07-29 01:27:43.040 ,5,0,0.,24.0,0.,24.0,0.,24.0,0.,24.0
1979-07-29 01:28:07.040 ,6,1,0.,24.0,0.,24.0,0.,24.0,0.,24.0
1979-07-29 01:28:31.040 ,6,0,0.,24.0,0.,24.0,0.,24.0,0.,24.0
1979-07-29 01:28:55.040 ,7,1,0.,24.0,0.,24.0,0.,24.0,0.,24.0
1979-07-29 01:29:19.040 ,7,0,0.,24.0,0.,24.0,0.,24.0,0.,24.0
1979-07-29 01:29:43.040 ,7,1,0.,24.0,0.,24.0,0.,24.0,0.,24.0
1979-07-29 01:30:07.040 ,7,0,0.,24.0,0.,24.0,0.,24.0,0.,24.0
1979-07-29 01:30:31.040 ,6,1,0.,24.0,0.,24.0,0.,24.0,0.,24.0
1979-07-29 01:30:55.040 ,6,0,0.,24.0,0.,24.0,0.,24.0,0.,24.0
1979-07-29 01:31:19.040 ,5,1,0.,24.0,0.,24.0,0.,24.0,0.,24.0
1979-07-29 01:31:43.040 ,5,0,0.,24.0,0.,24.0,0.,24.0,0.,24.0
1979-07-29 01:32:07.040 ,4,1,0.,24.0,0.,24.0,0.,24.0,0.,24.0
1979-07-29 01:32:31.040 ,4,0,0.,24.0,0.,24.0,0.,24.0,0.,24.0
1979-07-29 01:32:55.040 ,3,1,0.,24.0,0.,24.0,0.,24.0,0.,24.0
1979-07-29 01:33:19.040 ,3,0,0.,24.0,0.,24.0,0.,24.0,0.,24.0
1979-07-29 01:33:43.040 ,2,1,0.,24.0,0.,24.0,0.,24.0,0.,24.0
1979-07-29 01:34:07.040 ,2,0,0.,24.0,0.,24.0,0.,24.0,0.,24.0
1979-07-29 01:34:31.040 ,1,1,0.,24.0,0.,24.0,0.,24.0,0.,24.0
1979-07-29 01:34:55.040 ,1,0,0.,24.0,0.,24.0,0.,24.0,0.,24.0
1979-07-29 01:35:19.040 ,0,1,0.,24.0,0.,24.0,0.,24.0,0.,24.0
1979-07-29 01:35:43.040 ,0,0,0.,24.0,0.,24.0,0.,24.0,0.,24.0
1979-07-29 01:36:07.040 ,0,1,0.,24.0,0.,24.0,0.,24.0,0.,24.0
1979-07-29 01:36:31.040 ,0,0,0.,24.0,0.,24.0,0.,24.0,0.,24.0
1979-07-29 01:36:55.040 ,1,1,0.,24.0,0.,24.0,0.,24.0,0.,24.0
1979-07-29 01:37:19.040 ,1,0,0.,24.0,0.,24.0,0.,24.0,0.,24.0
1979-07-29 01:37:43.040 ,2,1,0.,24.0,0.,24.0,0.,24.0,0.,24.0
1979-07-29 01:38:07.040 ,2,0,0.,24.0,0.,24.0,0.,24.0,0.,24.0
1979-07-29 01:38:31.040 ,3,1,0.,24.0,0.,24.0,0.,24.0,0.,24.0
1979-07-29 01:38:55.040 ,3,0,0.,24.0,0.,24.0,0.,24.0,0.,24.0
1979-07-29 01:39:19.040 ,4,1,0.,24.0,0.,24.0,0.,24.0,0.,24.0
1979-07-29 01:39:43.040 ,4,0,0.,24.0,0.,24.0,0.,24.0,0.,24.0
1979-07-29 01:40:07.040 ,5,1,0.,24.0,0.,24.0,0.,24.0,0.,24.0
1979-07-29 01:40:31.040 ,5,0,0.,24.0,0.,24.0,0.,24.0,0.,24.0
1979-07-29 01:40:55.040 ,6,1,0.,24.0,0.,24.0,0.,24.0,0.,24.0
1979-07-29 01:41:19.040 ,6,0,0.,24.0,0.,24.0,0.,24.0,0.,24.0
1979-07-29 01:41:43.040 ,7,1,0.,24.0,0.,24.0,0.,24.0,0.,24.0
1979-07-29 01:42:07.040 ,7,0,0.,24.0,0.,24.0,0.,24.0,0.,24.0
1979-07-29 01:42:31.040 ,7,1,0.,24.0,0.,24.0,0.,24.0,0.,24.0
1979-07-29 01:42:55.040 ,7,0,0.,24.0,0.,24.0,0.,24.0,0.,24.0
1979-07-29 01:43:19.040 ,6,1,0.,24.0,0.,24.0,0.,24.0,0.,24.0
1979-07-29 01:43:43.040 ,0,0,1.,24.0,0.,24.0,0.,24.0,0.,24.0
1979-07-29 01:44:07.040 ,5,1,0.,24.0,0.,24.0,0.,24.0,0.,24.0
1979-07-29 01:44:31.040 ,5,0,0.,24.0,0.,24.0,0.,24.0,0.,24.0
1979-07-29 01:44:55.040 ,4,1,0.,24.0,0.,24.0,0.,24.0,0.,24.0
1979-07-29 01:45:19.040 ,4,0,0.,24.0,0.,24.0,0.,24.0,0.,24.0
1979-07-29 01:45:43.040 ,3,1,0.,24.0,0.,24.0,0.,24.0,0.,24.0
1979-07-29 01:46:07.040 ,3,0,0.,24.0,0.,24.0,0.,24.0,0.,24.0
1979-07-29 01:46:31.040 ,2,1,0.,24.0,0.,24.0,0.,24.0,0.,24.0
1979-07-29 01:46:55.040 ,2,0,0.,24.0,0.,24.0,0.,24.0,0.,24.0
1979-07-29 01:47:19.040 ,1,1,0.,24.0,0.,24.0,0.,24.0,0.,24.0
1979-07-29 01:47:43.040 ,1,0,0.,24.0,0.,24.0,0.,24.0,0.,24.0
1979-07-29 01:48:07.040 ,0,1,0.,24.0,0.,24.0,0.,24.0,0.,24.0
1979-07-29 01:48:31.040 ,0,0,0.,24.0,0.,24.0,0.,24.0,0.,24.0
1979-07-29 01:48:55.040 ,0,1,0.,24.0,0.,24.0,0.,24.0,0.,24.0
1979-07-29 01:49:19.040 ,0,0,0.,24.0,0.,24.0,0.,24.0,0.,24.0
1979-07-29 01:49:43.040 ,1,1,0.,24.0,0.,24.0,0.,24.0,0.,24.0
1979-07-29 01:50:07.040 ,1,0,0.,24.0,0.,24.0,0.,24.0,0.,24.0
1979-07-29 01:50:31.040 ,2,1,0.,24.0,0.,24.0,0.,24.0,0.,24.0
1979-07-29 01:50:55.040 ,2,0,0.,24.0,0.,24.0,0.,24.0,0.,24.0
1979-07-29 01:51:19.040 ,3,1,0.,24.0,0.,24.0,0.,24.0,0.,24.0
1979-07-29 01:51:43.040 ,3,0,0.,24.0,0.,24.0,0.,24.0,0.,24.0
1979-07-29 01:52:07.040 ,4,1,0.,24.0,0.,24.0,0.,24.0,0.,24.0
1979-07-29 01:52:31.040 ,4,0,0.,24.0,0.,24.0,0.,24.0,0.,24.0
1979-07-29 01:52:55.040 ,5,1,0.,24.0,0.,24.0,0.,24.0,0.,24.0
1979-07-29 01:53:19.040 ,5,0,0.,24.0,0.,24.0,0.,24.0,0.,24.0
1979-07-29 01:53:43.040 ,6,1,0.,24.0,0.,24.0,0.,24.0,0.,24.0
1979-07-29 01:54:07.040 ,6,0,0.,24.0,0.,24.0,0.,24.0,0.,24.0
1979-07-29 01:54:31.040 ,7,0,0.,24.0,0.,24.0,0.,24.0,0.,24.0
1979-07-29 01:54:55.040 ,7,0,0.,24.0,0.,24.0,0.,24.0,0.,24.0
1979-07-29 01:55:19.040 ,5,1,0.,24.0,0.,24.0,0.,24.0,0.,24.0
1979-07-29 01:55:43.040 ,1,1,0.,24.0,0.,24.0,0.,24.0,0.,24.0
1979-07-29 01:56:07.040 ,2,1,0.,24.0,0.,24.0,0.,24.0,0.,24.0
1979-07-29 01:56:31.040 ,6,1,0.,24.0,0.,24.0,0.,24.0,0.,24.0
1979-07-29 01:56:55.040 ,5,1,0.,24.0,0.,24.0,0.,24.0,0.,24.0
1979-07-29 01:57:19.040 ,1,1,0.,24.0,0.,24.0,0.,24.0,0.,24.0
1979-07-29 01:57:43.040 ,2,1,0.,24.0,0.,24.0,0.,24.0,0.,24.0
1979-07-29 01:58:07.040 ,6,1,0.,24.0,0.,24.0,0.,24.0,0.,24.0
1979-07-29 01:58:31.040 ,5,1,0.,24.0,0.,24.0,0.,24.0,0.,24.0
1979-07-29 01:58:55.040 ,1,1,0.,24.0,0.,24.0,0.,24.0,0.,24.0
1979-07-29 01:59:19.040 ,2,1,0.,24.0,0.,24.0,0.,24.0,0.,24.0
1979-07-29 01:59:43.040 ,6,1,0.,24.0,0.,24.0,0.,24.0,0.,24.0
1979-07-29 02:00:07.040 ,5,1,0.,24.0,0.,24.0,0.,24.0,0.,24.0
1979-07-29 02:00:31.040 ,1,1,0.,24.0,0.,24.0,0.,24.0,0.,24.0
1979-07-29 02:00:55.040 ,2,1,0.,24.0,0.,24.0,0.,24.0,0.,24.0
1979-07-29 02:01:19.040 ,6,1,0.,24.0,0.,24.0,0.,24.0,0.,24.0
1979-07-29 02:01:43.040 ,5,1,0.,24.0,0.,24.0,0.,24.0,0.,24.0
1979-07-29 02:02:07.040 ,1,1,0.,24.0,0.,24.0,0.,24.0,0.,24.0
1979-07-29 02:02:31.040 ,2,1,0.,24.0,0.,24.0,0.,24.0,0.,24.0
1979-07-29 02:02:55.040 ,6,1,0.,24.0,0.,24.0,0.,24.0,0.,24.0
1979-07-29 02:03:19.040 ,5,1,0.,24.0,0.,24.0,0.,24.0,0.,24.0
1979-07-29 02:03:43.040 ,1,1,0.,24.0,0.,24.0,0.,24.0,0.,24.0
1979-07-29 02:04:07.040 ,2,1,0.,24.0,0.,24.0,0.,24.0,0.,24.0
1979-07-29 02:04:31.040 ,6,1,0.,24.0,0.,24.0,0.,24.0,0.,24.0
1979-07-29 02:04:55.040 ,5,1,0.,24.0,0.,24.0,0.,24.0,0.,24.0
1979-07-29 02:05:19.040 ,1,1,0.,24.0,0.,24.0,0.,24.0,0.,24.0
1979-07-29 02:05:43.040 ,0,0,0.,24.0,0.,24.0,0.,24.0,0.,24.0
1979-07-29 02:06:07.040 ,0,0,0.,24.0,0.,24.0,0.,24.0,0.,24.0
1979-07-29 02:06:31.040 ,5,1,0.,24.0,0.,24.0,0.,24.0,0.,24.0
1979-07-29 02:06:55.040 ,5,0,0.,24.0,0.,24.0,0.,24.0,0.,24.0
1979-07-29 02:07:19.040 ,4,1,0.,24.0,0.,24.0,0.,24.0,0.,24.0
1979-07-29 02:07:43.040 ,4,0,0.,24.0,0.,24.0,0.,24.0,0.,24.0
1979-07-29 02:08:07.040 ,3,1,0.,24.0,0.,24.0,0.,24.0,0.,24.0
1979-07-29 02:08:31.040 ,3,0,0.,24.0,0.,24.0,0.,24.0,0.,24.0
1979-07-29 02:08:55.040 ,2,1,0.,24.0,0.,24.0,0.,24.0,0.,24.0
1979-07-29 02:09:19.040 ,2,0,0.,24.0,0.,24.0,0.,24.0,0.,24.0
1979-07-29 02:09:43.040 ,1,1,0.,24.0,0.,24.0,0.,24.0,0.,24.0
1979-07-29 02:10:07.040 ,1,0,0.,24.0,0.,24.0,0.,24.0,0.,24.0
1979-07-29 02:10:31.040 ,0,1,0.,24.0,0.,24.0,0.,24.0,0.,24.0
1979-07-29 02:10:55.040 ,0,0,0.,24.0,0.,24.0,0.,24.0,0.,24.0
1979-07-29 02:11:19.040 ,0,1,0.,24.0,0.,24.0,0.,24.0,0.,24.0
1979-07-29 02:11:43.040 ,0,0,0.,24.0,0.,24.0,0.,24.0,0.,24.0
1979-07-29 02:12:07.040 ,1,1,0.,24.0,0.,24.0,0.,24.0,0.,24.0
1979-07-29 02:12:31.040 ,1,0,0.,24.0,0.,24.0,0.,24.0,0.,24.0
1979-07-29 02:12:55.040 ,2,1,0.,24.0,0.,24.0,0.,24.0,0.,24.0
1979-07-29 02:13:19.040 ,2,0,0.,24.0,0.,24.0,0.,24.0,0.,24.0
1979-07-29 02:13:43.040 ,3,1,0.,24.0,0.,24.0,0.,24.0,0.,24.0
1979-07-29 02:14:07.040 ,3,0,0.,24.0,0.,24.0,0.,24.0,0.,24.0
1979-07-29 02:14:31.040 ,4,1,0.,24.0,0.,24.0,0.,24.0,0.,24.0
1979-07-29 02:14:55.040 ,4,0,0.,24.0,0.,24.0,0.,24.0,0.,24.0
1979-07-29 02:15:19.040 ,5,1,0.,24.0,0.,24.0,0.,24.0,0.,24.0
1979-07-29 02:15:43.040 ,5,0,0.,24.0,0.,24.0,0.,24.0,0.,24.0
1979-07-29 02:16:07.040 ,6,1,0.,24.0,0.,24.0,0.,24.0,0.,24.0
1979-07-29 02:16:31.040 ,6,0,0.,24.0,0.,24.0,0.,24.0,0.,24.0
1979-07-29 02:16:55.040 ,7,1,0.,24.0,0.,24.0,0.,24.0,0.,24.0
1979-07-29 02:17:19.040 ,7,0,0.,24.0,0.,24.0,0.,24.0,0.,24.0
1979-07-29 02:17:43.040 ,7,1,0.,24.0,0.,24.0,0.,24.0,0.,24.0
1979-07-29 02:18:07.040 ,7,0,0.,24.0,0.,24.0,0.,24.0,0.,24.0
1979-07-29 02:18:31.040 ,6,1,0.,24.0,0.,24.0,0.,24.0,0.,24.0
1979-07-29 02:18:55.040 ,6,0,1.,24.0,0.,24.0,0.,24.0,0.,24.0
1979-07-29 02:19:19.040 ,5,1,0.,24.0,0.,24.0,0.,24.0,0.,24.0
1979-07-29 02:19:43.040 ,5,0,0.,24.0,0.,24.0,0.,24.0,0.,24.0
1979-07-29 02:20:07.040 ,4,1,0.,24.0,0.,24.0,0.,24.0,0.,24.0
1979-07-29 02:20:31.040 ,4,0,0.,24.0,0.,24.0,0.,24.0,0.,24.0
1979-07-29 02:20:55.040 ,3,1,0.,24.0,0.,24.0,0.,24.0,0.,24.0
1979-07-29 02:21:19.040 ,3,0,0.,24.0,0.,24.0,0.,24.0,0.,24.0
1979-07-29 02:21:43.040 ,2,1,0.,24.0,0.,24.0,0.,24.0,0.,24.0
1979-07-29 02:22:07.040 ,2,0,0.,24.0,0.,24.0,0.,24.0,0.,24.0
1979-07-29 02:22:31.040 ,1,1,0.,24.0,0.,24.0,0.,24.0,0.,24.0
1979-07-29 02:22:55.040 ,1,0,0.,24.0,0.,24.0,0.,24.0,0.,24.0
1979-07-29 02:23:19.040 ,0,1,0.,24.0,0.,24.0,0.,24.0,0.,24.0
1979-07-29 02:23:43.040 ,0,0,0.,24.0,0.,24.0,0.,24.0,0.,24.0
1979-07-29 02:24:07.040 ,0,1,0.,24.0,0.,24.0,0.,24.0,0.,24.0
1979-07-29 02:24:31.040 ,0,0,0.,24.0,0.,24.0,0.,24.0,0.,24.0
1979-07-29 02:24:55.040 ,1,1,0.,24.0,0.,24.0,0.,24.0,0.,24.0
1979-07-29 02:25:19.040 ,1,0,1.,24.0,0.,24.0,0.,24.0,0.,24.0
1979-07-29 02:25:43.040 ,2,1,0.,24.0,0.,24.0,0.,24.0,0.,24.0
1979-07-29 02:26:07.040 ,2,0,0.,24.0,0.,24.0,0.,24.0,0.,24.0
1979-07-29 02:26:31.040 ,3,1,0.,24.0,0.,24.0,0.,24.0,0.,24.0
1979-07-29 02:26:55.040 ,3,0,0.,24.0,0.,24.0,0.,24.0,0.,24.0
1979-07-29 02:27:19.040 ,4,1,0.,24.0,0.,24.0,0.,24.0,0.,24.0
1979-07-29 02:27:43.040 ,4,0,0.,24.0,0.,24.0,0.,24.0,0.,24.0
1979-07-29 02:28:07.040 ,5,1,0.,24.0,0.,24.0,0.,24.0,0.,24.0
1979-07-29 02:28:31.040 ,5,0,0.,24.0,0.,24.0,0.,24.0,0.,24.0
1979-07-29 02:28:55.040 ,6,1,0.,24.0,0.,24.0,0.,24.0,0.,24.0
1979-07-29 02:29:19.040 ,6,0,0.,24.0,0.,24.0,0.,24.0,0.,24.0
1979-07-29 02:29:43.040 ,7,1,1.,24.0,0.,24.0,0.,24.0,0.,24.0
1979-07-29 02:30:07.040 ,7,0,0.,24.0,0.,24.0,0.,24.0,0.,24.0
1979-07-29 02:30:31.040 ,7,1,0.,24.0,0.,24.0,0.,24.0,0.,24.0
1979-07-29 02:30:55.040 ,7,0,0.,24.0,0.,24.0,0.,24.0,0.,24.0
1979-07-29 02:31:19.040 ,6,1,0.,24.0,0.,24.0,0.,24.0,0.,24.0
1979-07-29 02:31:43.040 ,6,0,0.,24.0,0.,24.0,0.,24.0,0.,24.0
1979-07-29 02:32:07.040 ,0,0,0.,24.0,0.,24.0,0.,24.0,0.,24.0
1979-07-29 02:32:31.040 ,0,0,0.,24.0,0.,24.0,0.,24.0,0.,24.0
1979-07-29 02:32:55.040 ,4,1,0.,24.0,0.,24.0,0.,24.0,0.,24.0
1979-07-29 02:33:19.040 ,4,0,0.,24.0,0.,24.0,0.,24.0,0.,24.0
1979-07-29 02:33:43.040 ,3,0,,0,,0,,0,,0
1979-07-29 02:34:07.040 ,3,0,0.,24.0,0.,24.0,0.,24.0,0.,24.0
1979-07-29 02:34:31.040 ,2,1,0.,24.0,0.,24.0,0.,24.0,0.,24.0
1979-07-29 02:34:55.040 ,2,0,0.,24.0,0.,24.0,0.,24.0,0.,24.0
1979-07-29 02:35:19.040 ,1,1,0.,24.0,0.,24.0,0.,24.0,0.,24.0
1979-07-29 02:35:43.040 ,1,0,0.,24.0,0.,24.0,0.,24.0,0.,24.0
1979-07-29 02:36:07.040 ,0,1,0.,24.0,0.,24.0,0.,24.0,0.,24.0
1979-07-29 02:36:31.040 ,0,0,0.,24.0,0.,24.0,0.,24.0,0.,24.0
1979-07-29 02:36:55.040 ,0,1,0.,24.0,0.,24.0,0.,24.0,0.,24.0
1979-07-29 02:37:19.040 ,0,0,0.,24.0,0.,24.0,0.,24.0,0.,24.0
1979-07-29 02:37:43.040 ,1,1,0.,24.0,0.,24.0,0.,24.0,0.,24.0
1979-07-29 02:38:07.040 ,1,0,0.,24.0,0.,24.0,0.,24.0,0.,24.0
1979-07-29 02:38:31.040 ,2,1,0.,24.0,0.,24.0,0.,24.0,0.,24.0
1979-07-29 02:38:55.040 ,2,0,0.,24.0,0.,24.0,0.,24.0,0.,24.0
1979-07-29 02:39:19.040 ,3,1,0.,24.0,0.,24.0,0.,24.0,0.,24.0
1979-07-29 02:39:43.040 ,3,0,0.,24.0,0.,24.0,0.,24.0,0.,24.0
1979-07-29 02:40:07.040 ,4,1,0.,24.0,0.,24.0,0.,24.0,0.,24.0
1979-07-29 02:40:31.040 ,4,0,0.,24.0,0.,24.0,0.,24.0,0.,24.0
1979-07-29 02:40:55.040 ,5,1,0.,24.0,0.,24.0,0.,24.0,0.,24.0
1979-07-29 02:41:19.040 ,5,0,0.,24.0,0.,24.0,0.,24.0,0.,24.0
1979-07-29 02:41:43.040 ,0,0,0.,24.0,0.,24.0,0.,24.0,0.,24.0
1979-07-29 02:42:07.040 ,0,0,0.,24.0,0.,24.0,0.,24.0,0.,24.0
1979-07-29 02:42:31.040 ,7,0,0.,24.0,0.,24.0,0.,24.0,0.,24.0
1979-07-29 02:42:55.040 ,7,0,0.,24.0,0.,24.0,0.,24.0,0.,24.0
1979-07-29 02:43:19.040 ,5,1,0.,24.0,0.,24.0,0.,24.0,0.,24.0
1979-07-29 02:43:43.040 ,1,1,0.,24.0,0.,24.0,0.,24.0,0.,24.0
1979-07-29 02:44:07.040 ,2,1,0.,24.0,0.,24.0,0.,24.0,0.,24.0
1979-07-29 02:44:31.040 ,6,1,0.,24.0,0.,24.0,0.,24.0,0.,24.0
1979-07-29 02:44:55.040 ,5,1,0.,24.0,0.,24.0,0.,24.0,0.,24.0
1979-07-29 02:45:19.040 ,1,1,0.,24.0,0.,24.0,0.,24.0,0.,24.0
1979-07-29 02:45:43.040 ,2,1,0.,24.0,0.,24.0,0.,24.0,0.,24.0
1979-07-29 02:46:07.040 ,6,1,0.,24.0,0.,24.0,0.,24.0,0.,24.0